Regional Weather Roundup
Issued by NWS Kansas City/Pleasant Hill, MO

Home | Current Version | Previous Version | Graphics & Text | Print | Product List | Glossary Off
Versions: 1 2 3 4 5 6 7 8 9 10 11 12 13 14 15 16 17 18 19 20 21 22 23 24 25 26 27 28 29 30 31 32 33 34 35 36 37 38 39 40 41 42 43 44 45 46 47 48 49 50

000
ASUS43 KEAX 221810
RWREAX

WEATHER ROUNDUP FOR EASTERN KANSAS AND NORTHWEST MISSOURI
NATIONAL WEATHER SERVICE KANSAS CITY/PLEASANT HILL MO
100 PM CDT FRI AUG 22 2014

KSZ040-057-103>105-MOZ028-029-037-043-221900-
...KANSAS CITY METROPOLITAN AREA...

CITY           SKY/WX    TMP DP  RH WIND       PRES   REMARKS
K.C. INTL      CLOUDY    87  74  64 S10       29.94F HX  95
6HR MIN TEMP:  77; 6HR MAX TEMP:  87;

K.C. DOWNTOWN  CLOUDY    91  72  53 S6        29.92F HX  98
6HR MIN TEMP:  80; 6HR MAX TEMP:  91;

LEES SUMMIT    MOSUNNY   87  72  60 S8        29.96F HX  93
6HR MIN TEMP:  76; 6HR MAX TEMP:  88;

OLATHE - IXD   PTSUNNY   88  75  65 S5        29.95S HX  97
6HR MIN TEMP:  76; 6HR MAX TEMP:  90; 6HR PCP:  0.06;

OLATHE - OJC   PTSUNNY   88  73  61 SE6       29.94F HX  95
6HR MIN TEMP:  76; 6HR MAX TEMP:  89;

LAWRENCE       MOSUNNY   96  72  45 S7        29.92F HX 104

$$

MOZ001>008-011>017-020>025-030>033-038>040-044>046-053-054-221900-
...NORTHERN AND CENTRAL MISSOURI...

CITY           SKY/WX    TMP DP  RH WIND       PRES   REMARKS
ST. JOSEPH     CLOUDY    81  75  82 S5        29.92S
6HR MIN TEMP:  75; 6HR MAX TEMP:  81; 6HR PCP:  0.04;

MOSBY          CLOUDY    86  70  58 S5        29.94F HX  90
WHITEMAN AFB   MOSUNNY   89  68  49 VRB3      29.97S HX  92
6HR MIN TEMP:  74; 6HR MAX TEMP:  89;

CLINTON        MOSUNNY   91  75  59 W5        29.97S HX 102
SEDALIA        MOSUNNY   90  74  59 S8        29.98F HX  99
6HR MIN TEMP:  77; 6HR MAX TEMP:  91;

WARSAW         NOT AVBL
MARSHALL       PTSUNNY   91  77  62 CALM      29.96F HX 105
CHILLICOTHE      N/A     86  76  71 S6        29.94F HX  96
6HR MIN TEMP:  76; 6HR MAX TEMP:  86;

MOBERLY        PTSUNNY   90  72  55 W8        29.98S HX  96
KIRKSVILLE     PTSUNNY   83  75  77 CALM      29.98F HX  90
6HR MIN TEMP:  74; 6HR MAX TEMP:  84; 6HR PCP:  0.06;


$$

MOZ041-047>049-056>058-063>065-088>090-097-221900-
...EASTERN AND SOUTHERN MISSOURI...

CITY           SKY/WX    TMP DP  RH WIND       PRES   REMARKS
ST. LOUIS INTL PTSUNNY   91  73  55 SW5       30.01F HX  99
6HR MIN TEMP:  80; 6HR MAX TEMP:  91; 6HR PCP: TRACE;

SPIRIT OF STL  PTSUNNY   89  73  59 S6        29.99F HX  97
COLUMBIA       MOSUNNY   91  74  57 SW7       29.98F HX 100
JEFFERSON CITY MOSUNNY   89  73  59 S7        29.97F HX  97
MEXICO         PTSUNNY   90  79  70 S6        29.98F HX 105
HANNIBAL       PTSUNNY   90  72  55 S7        29.99F HX  96
ROLLA          MOSUNNY   92  71  50 MISG      30.00F HX  98
LEBANON        SUNNY     97  61  30 S9        30.01F HX  97
OSAGE BEACH    MOSUNNY   93  72  49 SW6       29.98F HX 100
SPRINGFIELD    SUNNY     94  68  42 SW8       30.01F HX  98
BRANSON        MOSUNNY   97  68  38 W7        30.06F HX 101
NEVADA         SUNNY     93  72  49 S12       29.98S HX 100
JOPLIN         SUNNY     95  70  44 S17G24    29.99F HX 101
WEST PLAINS    SUNNY     91  71  51 SW6       30.06F HX  97

$$

IAZ060-094-KSZ022-034>040-054-083-096-NEZ052-066-093-221900-
...KANSAS...SOUTHEAST NEBRASKA AND IOWA...

CITY           SKY/WX    TMP DP  RH WIND       PRES   REMARKS
TOPEKA         MOSUNNY   92  72  51 SE9       29.91F HX  99
6HR MIN TEMP:  80; 6HR MAX TEMP:  93;

MANHATTAN      MOSUNNY   95  69  42 S8        29.89F HX 100
EMPORIA        PTSUNNY   80  70  71 E9        29.95R
CHANUTE        SUNNY     96  70  42 S15G22    29.95F HX 102
WICHITA        MOSUNNY   97  66  36 S14G23    29.91F HX 100
OMAHA          MOSUNNY   89  74  60 VRB3      29.92S HX  98
LINCOLN        MOSUNNY   92  73  53 N7        29.92S HX 100
FALLS CITY     CLOUDY    77  73  87 S8        29.90S
LAMONI         CLOUDY    83  76  79 SW7       29.96R HX  91
DES MOINES     CLOUDY    87  76  69 NW6       29.93F HX  97

$$




USA.gov is the U.S. government's official web portal to all federal, state and local government web resources and services.